timestamp,surface_pressure_avg,surface_temp_avg,battery_voltage,lat,long
2022-02-01 00:09:00+00:00,348.2596,2.3,12.57,47.84626,-54.09684
2022-02-01 00:19:01+00:00,351.2196,2.3,12.57,47.84626,-54.09684
2022-02-01 00:29:01+00:00,356.3679,2.3,12.57,47.84626,-54.09684
2022-02-01 00:39:01+00:00,341.36800000000005,2.3,12.57,47.84626,-54.09684
2022-02-01 00:49:01+00:00,334.6246,2.3,12.57,47.84626,-54.09684
2022-02-01 00:59:01+00:00,337.8613,2.23,12.57,47.84626,-54.09684
2022-02-01 01:09:01+00:00,332.4813,2.3,12.57,47.84626,-54.09684
2022-02-01 01:19:01+00:00,318.4113,2.29,12.49,47.84626,-54.09684
2022-02-01 01:29:01+00:00,317.113,2.18,12.49,47.84626,-54.09684
2022-02-01 01:39:01+00:00,314.233,2.2,12.49,47.84626,-54.09684
2022-02-01 01:49:01+00:00,302.6364,2.2,12.49,47.84626,-54.09684
2022-02-01 01:59:01+00:00,292.263,2.2,12.49,47.84626,-54.09684
2022-02-01 02:09:01+00:00,283.3981,2.16,12.49,47.84626,-54.09684
2022-02-01 02:19:00+00:00,279.9031,2.11,12.49,47.84626,-54.09684
2022-02-01 02:29:00+00:00,270.4864,2.1,12.49,47.84626,-54.09684
2022-02-01 02:39:00+00:00,260.2764,2.09,12.49,47.84626,-54.09684
2022-02-01 02:49:00+00:00,249.8548,2.0,12.49,47.84626,-54.09684
2022-02-01 02:59:00+00:00,245.7547,1.99,12.49,47.84626,-54.09684
2022-02-01 03:09:00+00:00,236.5898,1.9,12.49,47.84626,-54.09684
2022-02-01 03:19:00+00:00,223.1414,1.8,12.49,47.84626,-54.09684
2022-02-01 03:29:00+00:00,219.0048,1.81,12.49,47.84626,-54.09684
2022-02-01 03:39:00+00:00,218.4165,1.8,12.49,47.84626,-54.09684
2022-02-01 03:49:00+00:00,205.5215,1.6,12.49,47.84626,-54.09684
2022-02-01 03:59:00+00:00,195.4648,1.58,12.49,47.84626,-54.09684
2022-02-01 04:09:00+00:00,198.2898,1.66,12.49,47.84626,-54.09684
2022-02-01 04:19:00+00:00,193.3898,1.78,12.49,47.84626,-54.09684
2022-02-01 04:29:00+00:00,180.9031,1.8,12.49,47.84626,-54.09684
2022-02-01 04:39:00+00:00,176.7381,1.77,12.49,47.84626,-54.09684
2022-02-01 04:49:00+00:00,177.0998,1.6,12.49,47.84626,-54.09684
2022-02-01 04:59:00+00:00,174.6715,1.3,12.49,47.84626,-54.09684
2022-02-01 05:09:00+00:00,174.1865,1.4,12.49,47.84626,-54.09684
2022-02-01 05:19:01+00:00,171.4065,1.1,12.49,47.84626,-54.09684
2022-02-01 05:29:01+00:00,172.0648,1.0,12.49,47.84626,-54.09684
2022-02-01 05:39:01+00:00,174.3448,1.01,12.49,47.84626,-54.09684
2022-02-01 05:49:01+00:00,174.0881,0.9,12.49,47.84626,-54.09684
2022-02-01 05:59:01+00:00,174.0781,0.8,12.49,47.84626,-54.09684
2022-02-01 06:09:01+00:00,173.4064,0.98,12.49,47.84626,-54.09684
2022-02-01 06:19:00+00:00,173.8765,1.68,12.49,47.84626,-54.09684
2022-02-01 06:29:00+00:00,175.3798,1.76,12.49,47.84626,-54.09684
2022-02-01 06:39:00+00:00,180.3599,1.71,12.49,47.84626,-54.09684
2022-02-01 06:49:00+00:00,183.9848,1.9,12.49,47.84626,-54.09684
2022-02-01 06:59:00+00:00,180.5515,1.87,12.49,47.84626,-54.09684
2022-02-01 07:09:00+00:00,184.2231,1.8,12.49,47.84626,-54.09684
2022-02-01 07:19:00+00:00,195.8665,1.82,12.49,47.84626,-54.09684
2022-02-01 07:29:00+00:00,201.4414,1.8,12.49,47.84626,-54.09684
2022-02-01 07:39:00+00:00,201.1265,1.86,12.49,47.84626,-54.09684
2022-02-01 07:49:00+00:00,210.4631,1.91,12.49,47.84626,-54.09684
2022-02-01 07:59:00+00:00,223.5047,2.03,12.49,47.84626,-54.09684
2022-02-01 08:09:00+00:00,227.9615,2.08,12.49,47.84626,-54.09684
2022-02-01 08:19:00+00:00,229.6998,2.1,12.49,47.84626,-54.09684
2022-02-01 08:29:00+00:00,240.4498,2.1,12.49,47.84626,-54.09684
2022-02-01 08:39:00+00:00,252.8481,2.11,12.49,47.84626,-54.09684
2022-02-01 08:49:00+00:00,253.9114,2.27,12.49,47.84626,-54.09684
2022-02-01 08:59:00+00:00,259.0914,2.3,12.49,47.84626,-54.09684
2022-02-01 09:09:00+00:00,277.533,2.29,12.49,47.84626,-54.09684
2022-02-01 09:19:01+00:00,291.4996,2.36,12.41,47.84626,-54.09684
2022-02-01 09:29:01+00:00,291.3781,2.4,12.41,47.84626,-54.09684
2022-02-01 09:39:01+00:00,298.478,2.4,12.41,47.84626,-54.09684
2022-02-01 09:49:01+00:00,315.8763,2.37,12.41,47.84626,-54.09684
2022-02-01 09:59:01+00:00,322.898,2.4,12.41,47.84626,-54.09684
2022-02-01 10:09:01+00:00,324.1713,2.4,12.41,47.84626,-54.09684
2022-02-01 10:19:00+00:00,330.4346,2.4,12.49,47.84626,-54.09684
2022-02-01 10:29:00+00:00,337.9479,2.4,12.49,47.84626,-54.09684
2022-02-01 10:39:00+00:00,340.9313,2.4,12.49,47.84626,-54.09684
2022-02-01 10:49:00+00:00,343.1613,2.4,12.49,47.84626,-54.09684
2022-02-01 10:59:00+00:00,347.8297,2.4,12.49,47.84626,-54.09684
2022-02-01 11:09:00+00:00,347.8697,2.4,12.49,47.84626,-54.09684
2022-02-01 11:19:01+00:00,351.1797,2.4,12.41,47.84626,-54.09684
2022-02-01 11:29:01+00:00,355.4612,2.4,12.41,47.84626,-54.09684
2022-02-01 11:39:01+00:00,359.8079,2.4,12.41,47.84626,-54.09684
2022-02-01 11:49:01+00:00,360.7596,2.4,12.41,47.84626,-54.09684
2022-02-01 11:59:01+00:00,361.2462,2.4,12.41,47.84626,-54.09684
2022-02-01 12:09:01+00:00,361.3179,2.4,12.41,47.84626,-54.09684
2022-02-01 12:19:00+00:00,361.4329,2.4,13.53,47.84626,-54.09684
2022-02-01 12:29:00+00:00,359.5179,2.45,13.53,47.84626,-54.09684
2022-02-01 12:39:00+00:00,356.0413,2.49,13.53,47.84626,-54.09684
2022-02-01 12:49:00+00:00,351.8579,2.49,13.53,47.84626,-54.09684
2022-02-01 12:59:00+00:00,350.7829,2.49,13.53,47.84626,-54.09684
2022-02-01 13:09:00+00:00,349.7747,2.43,13.53,47.84626,-54.09684
2022-02-01 13:19:01+00:00,342.4846,2.42,14.64,47.84626,-54.09684
2022-02-01 13:29:01+00:00,338.1447,2.4,14.64,47.84626,-54.09684
2022-02-01 13:39:01+00:00,334.9596,2.42,14.64,47.84626,-54.09684
2022-02-01 13:49:01+00:00,329.4896,2.4,14.64,47.84626,-54.09684
2022-02-01 13:59:01+00:00,319.123,2.4,14.64,47.84626,-54.09684
2022-02-01 14:09:01+00:00,312.7247,2.4,14.64,47.84626,-54.09684
2022-02-01 14:19:00+00:00,308.7913,2.4,14.72,47.84626,-54.09684
2022-02-01 14:29:00+00:00,298.7747,2.4,14.72,47.84626,-54.09684
2022-02-01 14:39:00+00:00,287.1164,2.4,14.72,47.84626,-54.09684
2022-02-01 14:49:00+00:00,281.2697,2.4,14.72,47.84626,-54.09684
2022-02-01 14:59:00+00:00,272.8897,2.4,14.72,47.84626,-54.09684
2022-02-01 15:09:00+00:00,260.5197,2.4,14.72,47.84626,-54.09684
2022-02-01 15:19:01+00:00,253.4481,2.4,14.72,47.84626,-54.09684
2022-02-01 15:29:01+00:00,245.0931,2.4,14.72,47.84626,-54.09684
2022-02-01 15:39:01+00:00,232.2164,2.4,14.72,47.84626,-54.09684
2022-02-01 15:49:01+00:00,220.0331,2.4,14.72,47.84626,-54.09684
2022-02-01 15:59:01+00:00,212.0481,2.4,14.72,47.84626,-54.09684
2022-02-01 16:09:01+00:00,204.4098,2.4,14.72,47.84626,-54.09684
2022-02-01 16:19:00+00:00,196.6598,2.4,14.64,47.84626,-54.09684
2022-02-01 16:29:00+00:00,190.8531,2.4,14.64,47.84626,-54.09684
2022-02-01 16:39:00+00:00,185.0064,2.4,14.64,47.84626,-54.09684
2022-02-01 16:49:00+00:00,177.3281,2.4,14.64,47.84626,-54.09684
2022-02-01 16:59:00+00:00,170.1515,2.4,14.64,47.84626,-54.09684
2022-02-01 17:09:00+00:00,165.4798,2.4,14.64,47.84626,-54.09684
2022-02-01 17:19:01+00:00,158.7398,2.4,14.56,47.84626,-54.09684
2022-02-01 17:29:01+00:00,153.0865,2.4,14.56,47.84626,-54.09684
2022-02-01 17:39:01+00:00,156.1048,2.4,14.56,47.84626,-54.09684
2022-02-01 17:49:01+00:00,158.5131,2.4,14.56,47.84626,-54.09684
2022-02-01 17:59:01+00:00,155.2232,2.4,14.56,47.84626,-54.09684
2022-02-01 18:09:01+00:00,159.8015,2.41,14.56,47.84626,-54.09684
2022-02-01 18:19:00+00:00,166.7548,2.47,14.48,47.84626,-54.09684
2022-02-01 18:29:00+00:00,159.6631,2.49,14.48,47.84626,-54.09684
2022-02-01 18:39:00+00:00,158.5782,2.5,14.48,47.84626,-54.09684
2022-02-01 18:49:00+00:00,167.1448,2.5,14.48,47.84626,-54.09684
2022-02-01 18:59:00+00:00,163.6749,2.5,14.48,47.84626,-54.09684
2022-02-01 19:09:00+00:00,158.8632,2.5,14.48,47.84626,-54.09684
2022-02-01 19:19:00+00:00,164.7682,2.5,14.32,47.84626,-54.09684
2022-02-01 19:29:00+00:00,171.0482,2.5,14.32,47.84626,-54.09684
2022-02-01 19:39:00+00:00,171.6315,2.5,14.32,47.84626,-54.09684
2022-02-01 19:49:00+00:00,175.9048,2.5,14.32,47.84626,-54.09684
2022-02-01 19:59:00+00:00,187.2298,2.5,14.32,47.84626,-54.09684
2022-02-01 20:09:00+00:00,196.2598,2.5,14.32,47.84626,-54.09684
2022-02-01 20:19:00+00:00,198.6231,2.5,13.76,47.84626,-54.09684
2022-02-01 20:29:00+00:00,202.2881,2.5,13.76,47.84626,-54.09684
2022-02-01 20:39:00+00:00,210.6914,2.5,13.76,47.84626,-54.09684
2022-02-01 20:49:00+00:00,217.1281,2.5,13.76,47.84626,-54.09684
2022-02-01 20:59:00+00:00,221.3264,2.5,13.76,47.84626,-54.09684
2022-02-01 21:09:00+00:00,232.4348,2.5,13.76,47.84626,-54.09684
2022-02-01 21:19:01+00:00,244.7947,2.5,13.29,47.84626,-54.09684
2022-02-01 21:29:01+00:00,249.4364,2.5,13.29,47.84626,-54.09684
2022-02-01 21:39:01+00:00,254.5414,2.5,13.29,47.84626,-54.09684
2022-02-01 21:49:01+00:00,265.6431,2.5,13.29,47.84626,-54.09684
2022-02-01 21:59:01+00:00,273.863,2.5,13.29,47.84626,-54.09684
2022-02-01 22:09:01+00:00,278.9081,2.49,13.29,47.84626,-54.09684
2022-02-01 22:19:01+00:00,283.8914,2.5,12.97,47.84626,-54.09684
2022-02-01 22:29:01+00:00,292.7297,2.5,12.97,47.84626,-54.09684
2022-02-01 22:39:01+00:00,299.538,2.4,12.97,47.84626,-54.09684
2022-02-01 22:49:01+00:00,303.21299999999997,2.48,12.97,47.84626,-54.09684
2022-02-01 22:59:01+00:00,308.2164,2.5,12.97,47.84626,-54.09684
2022-02-01 23:09:01+00:00,316.5714,2.52,12.97,47.84626,-54.09684
2022-02-01 23:19:01+00:00,322.708,2.5,12.65,47.84626,-54.09684
2022-02-01 23:29:01+00:00,324.4547,2.5,12.65,47.84626,-54.09684
2022-02-01 23:39:01+00:00,327.0529,2.5,12.65,47.84626,-54.09684
2022-02-01 23:49:01+00:00,333.1263,2.53,12.65,47.84626,-54.09684
2022-02-01 23:59:01+00:00,335.3613,2.54,12.65,47.84626,-54.09684
